Preview of NWS' New Version of Forecast
This preview is not operational and should not be used for support decisions.

Regional Weather Roundup (RWR)

Issued by National Weather Service (NWS)

                            
000
ASUS44 KMEG 260200
RWRTN 
TENNESSEE HOURLY STATE WEATHER ROUNDUP
NATIONAL WEATHER SERVICE MEMPHIS TN
900 PM CDT SUN AUG 25 2019

TNZ002-004-019-021-049-052-054-088>092-260300-
WEST TENNESSEE
  
CITY           SKY/WX    TMP DP  RH WIND       PRES   REMARKS
MEMPHIS INTL   CLOUDY    78  73  84 SE8       29.88R                  
NWS MEMPHIS      N/A     76 N/A N/A MISG        N/A                   
JACKSON        LGT RAIN  73  71  93 VRB6      29.94R                  
DYERSBURG      FAIR      74  73  97 SE6       29.92R                  
$$

TNZ008-025-027-028-033-062-065-066-260300-
NORTH MIDDLE TENNESSEE
  
CITY           SKY/WX    TMP DP  RH WIND       PRES   REMARKS
NASHVILLE      LGT RAIN  74  71  91 SE7       29.98S                  
CLARKSVILLE    LGT RAIN  72  72 100 SE8       29.93F                  
SMYRNA         LGT RAIN  73  71  93 SE5       29.99R                  
CROSSVILLE     CLOUDY    69  65  86 SE5       30.08R                  
$$

TNZ061-075-076-078-094-096-097-260300-
SOUTH MIDDLE TENNESSEE
  
CITY           SKY/WX    TMP DP  RH WIND       PRES   REMARKS
$$

TNZ017-018-042-046-047-260300-
NORTHEAST TENNESSEE
  
CITY           SKY/WX    TMP DP  RH WIND       PRES   REMARKS
TRI CITIES     CLOUDY    70  57  63 E7        30.11S                  
$$

TNZ012-013-036-069-073-074-260300-
CENTRAL EAST TENNESSEE
  
CITY           SKY/WX    TMP DP  RH WIND       PRES   REMARKS
KNOXVILLE      LGT RAIN  71  70  96 SE3       30.04S FOG              
OAK RIDGE      CLOUDY    74  68  81 CALM      30.06R                  
$$

TNZ083-085-099-260300-
SOUTHEAST TENNESSEE
  
CITY           SKY/WX    TMP DP  RH WIND       PRES   REMARKS
CHATTANOOGA    CLOUDY    74  68  81 S6        30.05R                  
$$

SKY/WX REPORTED AS FAIR MEANS FEW OR NO CLOUDS BELOW
12 THOUSAND FEET.